Погода в Петруни

Погода в Петруни : погода сейчас, прогноз погоды и архив. Всё, что Вы хотите узнать о погоде в Петруни!

Поиск расширенной информации на нашем сайте:

Полезная информация: котокафе

Другие новости

Новости СМИ2

Главная страница сайта

Новости сайта

02.10.2013

Напоминаем, что на нашем новом сайте вы можете получить высокодетализированные прогнозы погоды по пунктам России, СНГ и мира (включающие важные для авиации метеовеличины, такие как направление и скорость ветра, видимость, явления погоды, количество и форма облачности, нижняя и верхняя граница облачности), а также ознакомиться с разнообразными материалами по авиационной метеорологии и подборкой полезных ссылок на эту тему.

Сайт Метеоцентр.Азия посвящён разработке технологий оптимизации авиаметеорологического обслуживания, включая проектирование и перспективное создание нескольких автоматизированных авиаметеорологических систем:
- система выпуска высокодетальных прогностических карт явлений погоды для нижнего воздушного пространства по России и ближнему зарубежью;
- система верификации прогнозов TAF (выпускаемых синоптиками официальных АМСГ РФ и ближнего зарубежья) и AUTOTAF (выпускаемых сайтом Метеоцентр.Азия) - выявление ошибок, онлайн-сопоставление с фактической погодой METAR, автоматическое внесение коррективов в прогнозы при резком отклонении фактической погоды от прогноза, подсчёт оправдываемости прогнозов по элементам и в целом;
- система обработки, анализа и отображения авиаметеорологической информации для применения провайдерами метеорологической информации.

Рекомендуем: Лада с пробегом купить авто с пробегом.

Погода в Петруни - сегодня

Время (UTC), дата Ветер
(°,м/с) 
Видим.   Явления Облачность Т
(°С)
Тd
(°С)
f(%) Тe
(°С)
Pmin
(гПа)
dP
(гПа)
Po
(мм)
O2
(г/м3)
Тmin Tmax R s Состояние
почвы
12 22.03.17 210 (ЮЗ) 30000 м  {снег}  10/10 750 м 
[Sc]
+0.7 -4.3 69 -2  1014.9  755  304           
15 22.03.17 210 (ЮЗ) 5{10}  30000 м    10/10 570 м 
[Sc]
+1.1 -3.4 72 -2  1015.3  0.4  756  304    +1.1     
18 22.03.17 210 (ЮЗ) 28000 м    10/10 1500 м 
[Sc]
+1 -2.9 75 -1  1015.1  -0.1  756  304           
21 22.03.17 200 (Ю) 30000 м    10/10 1140 м 
[Sc]
+1.1 -2.7 76 1014.7  -0.4  755  303           
00 23.03.17 180 (Ю) 29000 м    10/0 средняя 
[Ac und]
+1.5 -2.6 74 +1  1013.5  -1.2  754  303           
03 23.03.17 170 (Ю) 40000 м    10/0 средняя 
[Ac und]
+1.8 -2.9 71 1011.4  -2.1  753  302  +0.9      37  очень
неравномерный
сухой снег
(сугробы, заносы) 
06 23.03.17 160 (Ю) 40000 м    10/0 средняя 
[Ac As]
+3 -3.1 64 +1  1009  -2.3  751  300           
09 23.03.17 170 (Ю) 45000 м    10/0 средняя 
[Ac As]
+4.4 -4.1 54 +3  1006.5  -2.5  749  298           
12 23.03.17 200 (Ю) 5{10}  8000 м  слаб. дождь  10/0 средняя 
[As op]
+2.5 +1.5 93 1005.4  -1.1  748  299          затоплена
водой 
15 23.03.17 200 (Ю) 5{10}  6000 м  слаб. снег{дождь}  10/10 330 м 
[Frnb|Ns]
+0.8 +0.3 96 -2  1005.8  0.3  749  301    +4.5     
18 23.03.17 210 (ЮЗ) 5{10}  28000 м  {снег, дождь}  10/10 600 м 
[Sc]
+0.7 +0.1 96 -2  1005.9  0.1  749  301           
21 23.03.17 200 (Ю) 26000 м    10/10 300 м 
[St]
+0.7 +0.1 96 -2  1005.1  -0.8  748  301           
00 24.03.17 210 (ЮЗ) 25000 м    10/10 240 м 
[St]
+0.5 -0.3 94 -2  1004.3  -0.8  747  301           
03 24.03.17 200 (Ю) 28000 м    10/10 240 м 
[St]
+0.5 -0.3 94 -1  1003.6  -0.7  747  300  +0.2    0.3  37  очень
неравномерный
сухой снег
(сугробы, заносы) 
06 24.03.17 210 (ЮЗ) 7000 м  слаб. ливневой снег  9/9 570 м кучево-дожд. 
[Cb cap]
+1.6 -1.2 82 -1  1003.3  -0.3  747  299           
09 24.03.17 220 (ЮЗ) 29000 м  в посл. час ливневой снег  9/9 900 м кучево-дожд. 
[Cb cap]
+2.5 -1.1 77 1002.9  -0.3  746  298           
12 24.03.17 200 (Ю) 6000 м  слаб. ливневой снег  9/8 570 м кучево-дожд., средняя 
[Cb cap|Ac cuf]
+1.4 +0 90 1003.3  0.3  747  299           
15 24.03.17 200 (Ю) 4{10}  30000 м  {ливн. осадки}  3/3 300 м кучево-дожд. 
[Cb cap]
-0.2 -1.1 94 -3  1003.4  0.1  747  301    +2.8  0.5     
18 24.03.17 210 (ЮЗ) 35000 м  {ливн. осадки}  1/0 средняя 
[Ac As]
-1.8 -3 91 -5  1003.4  -0.1  747  303           
21 24.03.17 190 (Ю) 35000 м    3/0 средняя 
[Ac As]
-2.4 -3.3 94 -4  1002.8  -0.6  746  304           
00 25.03.17 160 (Ю) 35000 м    3/0 средняя 
[Ac As]
-5.6 -6.3 95 -8  1002.6  -0.3  746  308           
03 25.03.17 190 (Ю) 40000 м    4/0 средняя, верхняя 
[Ac As|Ci fib]
-6.8 -7.6 94 -8  1002.8  0.2  746  309  -6.8      32  очень
неравномерный
сухой снег
(сугробы, заносы) 
06 25.03.17 190 (Ю) 40000 м    3/0 средняя, верхняя 
[Ac As|Ci fib]
-2.1 -5.3 79 -5  1002.4  -0.3  746  303           
09 25.03.17 190 (Ю) 40000 м    9/9 1020 м кучево-дожд. 
[Cb cap]
-0.2 -4.5 73 -3  1002.2  -0.1  746  301           
12 25.03.17 230 (ЮЗ) 5{11}  35000 м    9/0 средняя 
[Ac As]
-0.5 -5 72 -4  1002.9  0.7  746  302           
Время (UTC), дата Ветер
(°,м/с) 
Видим.   Явления Облачность Т
(°С)
Тd
(°С)
f(%) Тe
(°С)
Pmin
(гПа)
dP
(гПа)
Po
(мм)
O2
(г/м3)
Тmin Tmax R s Состояние
почвы

Для получения пояснительной информации подведите курсор к названию столбца.

ПОГОДА в Петруни - архив

Всё, что Вы хотите узнать о погоде в Петруни - удобно и подробно!

Выберите нужную дату (начиная с 1 января 2015* года) и нажмите кнопку "Найти".
Будут отображены архивные сводки погоды по пункту Петрунь, начиная с указанной даты.


Отображать данные в формате CSV (для использования в таблицах Excel)


Внимание! Наш архив погоды предназначен исключительно для личного некоммерческого использования в познавательных целях. Если Вам необходимы официальные справки о состоянии погоды (для производственных, юридических, коммерческих и т.п. целей), обращайтесь в органы Росгидромета.

*Примечание: данная дата относится к архиву по метеостанциям СССР (Россия, СНГ, Балтия).
Архив по метеостанциям Зарубежной Европы и Азии (кроме Китая) хранится 10 дней, по другим регионам земного шара (Китай, Африка, Америка, Австралия, Океания) - 1 день.

Петрунь - район местоположения метеостанции


Название, широта, долгота, высота метеостанции:
Петрунь 66.5°ш. 60.8°д. 58 м над ур. моря [Российская Федерация]

Дополнительная информация

В oтличие oт бoльшинства пoгoдных сайтoв мы публикуем пoдрoбную метеoинфoрмацию в детальнoм прoфессиoнальнoм фoрмате.

Характеристики температуры и влажнoсти вoздуха измеряются на высoте 2 м в тени вдали oт зданий и деревьев.
Скoрoсть ветра измеряется на высoте 10 м (на урoвне рoста челoвека скoрoсть ветра ниже в 1.5-2 раза). Если метеoстанция нахoдится в гoрoде или в лесу, тo скoрoсть ветра занижена на 2-4 м/с пo сравнению с oткрытым местoм. Скoрoсть ветра над акватoриями крупных рек и oзёр, а также на вершинах хoлмoв на 2-5 м/с выше, чем в oбычных услoвиях.
Атмoсфернoе давление в разных тoчках местнoсти мoжет значительнo oтличаться oт давления на метеoстанции, в зависимoсти oт услoвий рельефа (при пoдъёме на 10 м давление пoнижается примернo на 1 мм рт.ст.).